Location: Brest
(52.1000°N, 23.7000°E)
Time: 00:45:25
(UTC+03:00)

Envisat - Visible Passes

Search period start: 29 March 2017 00:00
Search period end: 08 April 2017 00:00
Orbit: 764 x 766 km, 98.2° (Epoch: 27 March)

Date Brightness Start Highest point End Pass type
(mag) Time Alt. Az. Time Alt. Az. Time Alt. Az.
29 Mar 3.8 21:51:37 10° S 21:56:32 49° W 22:01:29 10° NNW visible
30 Mar 3.0 21:14:40 10° SSE 21:19:45 86° ENE 21:24:52 10° NNW visible
30 Mar 5.5 22:56:21 10° SW 22:59:28 16° W 23:02:37 10° NW visible
31 Mar 3.4 20:38:20 10° SE 20:43:09 46° ENE 20:48:00 10° N visible
31 Mar 4.6 22:17:52 10° SSW 22:22:21 31° W 22:26:52 10° NNW visible
01 Apr 3.5 21:40:25 10° S 21:45:25 60° W 21:50:29 10° NNW visible
02 Apr 3.0 21:03:38 10° SSE 21:08:42 72° ENE 21:13:47 10° NNW visible
02 Apr 5.3 22:44:36 10° SW 22:48:16 20° W 22:51:57 10° NW visible
03 Apr 4.3 22:06:29 10° SSW 22:11:12 37° W 22:15:56 10° NNW visible
04 Apr 3.2 21:29:16 10° S 21:34:20 73° WSW 21:39:27 10° NNW visible
04 Apr 5.7 23:12:18 10° WSW 23:14:17 12° W 23:16:16 10° WNW visible
05 Apr 3.1 20:52:40 10° SSE 20:57:39 60° ENE 21:02:40 10° N visible
05 Apr 5.1 22:33:00 10° SW 22:37:04 24° W 22:41:10 10° NW visible
06 Apr 4.0 21:55:12 10° S 22:00:04 45° W 22:04:58 10° NNW visible
07 Apr 3.0 21:18:10 10° SSE 21:23:15 88° WSW 21:28:23 10° NNW visible
07 Apr 5.6 23:00:11 10° WSW 23:03:02 15° W 23:05:55 10° NW visible
